• Processing (Info)

  • MPEC 2011-Q29 : 2011 QF14

    The following Minor Planet Electronic Circular may be linked-to from your own Web pages, but must not otherwise be redistributed electronically.

    A form allowing access to any MPEC is at the bottom of this page.


    Read MPEC 2011-Q28 Read MPEC 2011-Q30


    M.P.E.C. 2011-Q29                                Issued 2011 Aug. 25, 12:12 UT
    
         The Minor Planet Electronic Circulars contain information on unusual
             minor planets and routine data on comets.  They are published
       on behalf of Commission 20 of the International Astronomical Union by the
              Minor Planet Center, Smithsonian Astrophysical Observatory,
                              Cambridge, MA 02138, U.S.A.
    
                 Prepared using the Tamkin Foundation Computer Network
    
                                  MPC@CFA.HARVARD.EDU
                URL https://www.minorplanetcenter.net/    ISSN 1523-6714
    
                                       2011 QF14
    
    Observations:
         K11Q14F* C2011 08 22.98995 22 53 36.87 -09 27 15.8          19.6 VrEQ029J75
         K11Q14F  C2011 08 22.99981 22 53 36.28 -09 27 21.5          19.6 VrEQ029J75
         K11Q14F  C2011 08 23.00966 22 53 35.70 -09 27 28.2          18.8 VrEQ029J75
         K11Q14F  C2011 08 24.43477 22 52 12.663-09 42 50.28         19.8 wLEQ029F51
         K11Q14F  C2011 08 24.44877 22 52 11.753-09 42 59.56         19.7 wLEQ029F51
         K11Q14F  C2011 08 24.46273 22 52 10.847-09 43 08.85         19.7 wLEQ029F51
         K11Q14F KC2011 08 25.32303122 51 18.32 -09 52 47.2          19.0 RuEQ029H36
         K11Q14F KC2011 08 25.32973122 51 17.86 -09 52 51.4          18.5 RuEQ029H36
         K11Q14F KC2011 08 25.34023222 51 17.19 -09 52 58.6          18.7 RuEQ029H36
    
    Observer details:
    F51 Pan-STARRS 1, Haleakala.  Observers N. Primak, A. Schultz, S. Watters,
        J. Thiel, T. Goggia.  Measurer PS1 Science Consortium.  1.8-m
        Ritchey-Chretien + CCD.
    H36 Sandlot Observatory, Scranton.  Observer G. Hug.  0.56-m reflector + CCD.
    J75 OAM Observatory, La Sagra.  Observers S. Sanchez, J. Nomen, R. Stoss,
        M. Hurtado, W. K. Y. Yeung, J. A. Jaume, P. Rios, F. Serra.  0.45-m f/2.8
        reflector + CCD.
    
    Orbital elements:
    2011 QF14                                                Earth MOID = 0.0708 AU
    Epoch 2011 Aug. 27.0 TT = JDT 2455800.5                 MPC
    M 318.82939              (2000.0)            P               Q
    n   0.32313838     Peri.  296.93124     +0.24276964     -0.96924380
    a   2.1031828      Node   138.95330     +0.91041266     +0.21327076
    e   0.5094552      Incl.    3.52416     +0.33498012     +0.12280896
    P   3.05           H   18.7           G   0.15           U   9
    Residuals in seconds of arc
    110822 J75  0.1-  0.3-    110824 F51  0.0   0.0     110825 H36  0.1+  0.2-
    110822 J75  0.0   0.3+    110824 F51  0.0   0.0     110825 H36  0.2-  0.1+
    110823 J75  0.2+  0.1-    110824 F51  0.0   0.0     110825 H36  0.1+  0.0
    
    Ephemeris:
    2011 QF14                a,e,i = 2.10, 0.51, 4                   q = 1.0317
    Date    TT    R. A. (2000) Decl.     Delta      r     Elong.  Phase     V
    2011 07 26    23 04 56.5 -06 30 31   1.0453  1.9224   137.7    20.8    21.2
    ...
    2011 08 10    23 02 32.5 -07 35 16   0.8606  1.8230   153.0    14.6    20.5
    ...
    2011 08 18    22 57 49.9 -08 37 54   0.7778  1.7687   162.1    10.1    20.0
    ...
    2011 08 24    22 52 38.4 -09 37 58   0.7237  1.7276   169.3     6.2    19.7
    2011 08 25    22 51 38.4 -09 49 00   0.7154  1.7207   170.5     5.6    19.6
    2011 08 26    22 50 36.1 -10 00 18   0.7073  1.7138   171.7     4.9    19.5
    ...
    2011 09 01    22 43 39.1 -11 13 14   0.6633  1.6722   177.1     1.8    19.1
    ...
    2011 09 09    22 32 52.4 -12 59 51   0.6164  1.6163   168.6     7.1    19.2
    ...
    2011 09 24    22 11 32.0 -16 18 02   0.5626  1.5110   148.2    20.5    19.4
    
    A. U. Tomatic                (C) Copyright 2011 MPC           M.P.E.C. 2011-Q29
    

    Read MPEC 2011-Q28 Read MPEC 2011-Q30


    MPEC number:

    Enter an MPEC number in one of the following forms:

    • 1997-B01 (the full form)
    • J97B01 (the packed version of the full form)
    • B01 (the abbreviated form)